Skip Page Navigation
NASA JPL Caltech
NASA Logo - Jet Propulsion Laboratory + View the NASA Portal
+ Center for Near-Earth Object Studies
JPL Home Earth Solar System Stars & Galaxies Technology
JPL Solar System Dynamics
BODIES ORBITS EPHEMERIDES TOOLS PHYSICAL DATA DISCOVERY FAQ SITE MAP
IMPORTANT: The SSD Announcement email list is now available. Major changes are coming in the near future, including possible hostname and/or URL changes. To be notified of such changes, subscribe to this email list.

Please visit this page for more details.


JPL Small-Body Database Browser
Search: [ help ]  
379923 (2012 KC27)
Classification: Main-belt Asteroid          SPK-ID: 2379923
Ephemeris | Orbit Diagram | Orbital Elements | Mission Design | Physical Parameters | Discovery Circumstances | Close-Approach Data ]

[ show orbit diagram ]
Orbital Elements at Epoch 2458600.5 (2019-Apr-27.0) TDB
Reference: JPL 13 (heliocentric ecliptic J2000)
 Element Value Uncertainty (1-sigma)   Units 
e .1913793659367112 5.2912e-08  
a 2.312712608748173 2.2993e-08 au
q 1.87010713609211 1.3246e-07 au
i 6.363098130354199 6.1028e-06 deg
node 67.88908370659567 4.5955e-05 deg
peri 274.498948964849 4.8444e-05 deg
M 256.7855571013213 1.649e-05 deg
tp 2458968.814571565081
(2020-Apr-29.31457157)
6.1106e-05 TDB
period 1284.638487014751
3.52
1.9158e-05
5.245e-08
d
yr
n .2802344812481601 4.1791e-09 deg/d
Q 2.755318081404235 2.7393e-08 au
  Orbit Determination Parameters
   # obs. used (total)      157  
   data-arc span      5169 days (14.15 yr)  
   first obs. used      2005-05-08  
   last obs. used      2019-07-03  
   planetary ephem.      DE431  
   SB-pert. ephem.      SB431-N16  
   condition code      0  
   norm. resid. RMS      .6249  
   source      ORB  
   producer      Otto Matic  
   solution date      2019-Sep-24 06:57:39  

Additional Information
 Earth MOID = .874509 au 
 Jupiter MOID = 2.66238 au 
 T_jup = 3.551 
[ show covariance matrix ]

Ephemeris | Orbit Diagram | Orbital Elements | Mission Design | Physical Parameters | Discovery Circumstances | Close-Approach Data ]

Physical Parameter Table
Parameter Symbol Value Units Sigma Reference Notes
absolute magnitude H 17.3   n/a MPO437556  

379923 (2012 KC27)          Discovered 2005-May-08 by Spacewatch at Kitt Peak
Reference: Last Updated: 2013-11-20

[ show close-approach data ]
Alternate Designations
 2012 KC27 = 2005 JG83 
Ephemeris | Orbit Diagram | Orbital Elements | Mission Design | Physical Parameters | Discovery Circumstances | Close-Approach Data ]
ABOUT SSD CREDITS/AWARDS PRIVACY/COPYRIGHT GLOSSARY LINKS
FirstGov 2019-Dec-05 20:07 UT
(server date/time)  
NASA Home Page
Site Manager:   Ryan S. Park
Webmaster  Alan B. Chamberlin